STARLINK-36238, 68563

Orbit data source: Space-Track

STARLINK-36238, 68563 is a payload satellite owned by SpaceX/Seattle (US) in LEO that was launched on Thu, 02 Apr 2026 UTC via an FALCON 9 launch vehicle from the Air Force Eastern Test Range (AFETR). Payload-class satellites include a variety of spacecraft equipped with specific instruments for various scientific and technological missions. These include communications satellites like Starlink; space stations such as the ISS; scientific satellites like the Hubble; Earth observation satellites from companies like Planet Labs, Umbra, and HawkEye 360; GPS; miniature CubeSats for education and research; and military/defense satellites.

Loading next visibility...
Identifier
68563, 2026-070X
Orbit
LEO
Country
Flag of USUS
Related business
Manufacturer
SpaceX/Seattle
Mission
Operational spacecraft
Bus & Motor
STARLINK V2MO, Unknown motor
Mass
575 kg wet, ~530 kg dry
Launch date (UTC)
2026-04-02 (2 months ago)
Launch vehicle
FALCON 9
Launch site
Air Force Eastern Test Range (AFETR)
Object type
Payload
Rocket body
Debris
Shape & HBR
Unknown shape, 14.5 m
Radar Cross Section
RCS unknown

Expand to show TLE details & history
Last TLE update: 11 hours ago

TLE from 11 hours ago
0 STARLINK-36238
1 68563U 26070X   26145.58335648  .00042139  00000-0  12524-2 0  9998
2 68563  53.1593   4.7171 0001028  89.9174  43.7356 15.34373364  5973
Epoch: 2026-05-25T14:00Z
TLE epoch observation values (Epoch: 2026-05-25T14:00:01.999Z)
Latitude
35.49316°
Longitude
59.44582°
Altitude
464.948 km
Speed
7.639 km/s
True Right ascension
10h 10m 29s
True Declination
35° 19' 26"
Sunlit
Object was in daylight at epoch
Visualization orbit readout
Latitude
Unknown
Longitude
Unknown
Altitude
Unknown
Speed
Unknown
Apparent Right ascension
Unknown
Apparent Declination
Unknown
Sunlit
N/A
Visualization observer readout
Local Sidereal Time
10:22:05
Azimuth
Unknown
Elevation
Unknown
Doppler factor
Unknown
Orbital elements
Apogee altitude
463.743 km
Perigee altitude
462.336 km
Semi-major axis
6,841.176 km
Eccentricity
0.0001
Inclination
53.1593°
RAAN
4.7171°
Arg. of periapsis
89.9174°
True anomaly
43.74374°
Mean anomaly
43.7356°
Eccentric anomaly
43.73967°
Mean motion
3.83572 °/min
Orbital period
93.85 mins
BSTAR
0.0012524
Loading maneuver chart data...
Computing Atmospheric mass density...
Loading historical data...
Loading historical data...
Loading historical data...
Loading historical data...
Loading historical data...
Loading historical data...
Loading historical data...

Documentation

Showing up to 5 results
|